Temp
24 24 22 22 19 18 19 22 25 26 27 26 27 27 25 21 25 22 18 19 22 19 18 19 19 20 20 20 20 20 20 20 20 20 20 20 19 19 18 18 18 17 17 17 19 19 19 19 18
24 23 22 20 19 18 21 24 26 23 19 22 25 24 25 21 19 18 15 20 24 23 23 18 19 18 18 19 19 19 19 19 19 19 19 19 19 18 18 18 18 17 17 17 18 19 19 18 18
23 23 20 19 18 19 20 25 25 22 20 19 18 20 22 19 19 19 18 19 22 23 24 20 18 18 18 18 18 19 19 19 19 19 19 18 18 18 18 18 17 17 17 17 19 19 19 19 18
23 21 20 20 20 22 25 24 21 21 20 19 19 20 19 19 19 19 18 19 20 23 23 16 18 19 18 18 18 19 19 19 19 19 19 18 18 17 18 17 17 17 17 17 19 19 19 19 19
23 19 19 20 22 25 24 24 19 19 20 19 19 19 20 19 22 20 19 18 19 20 19 17 19 18 18 18 18 19 18 18 19 19 18 18 18 17 18 17 17 17 18 19 19 19 19 19 19
20 20 19 21 23 26 24 23 21 21 19 20 20 17 19 21 21 19 20 18 16 16 17 18 18 18 18 18 18 18 18 18 18 18 18 18 18 17 18 17 18 18 18 19 19 19 19 19 19
21 19 19 21 24 25 26 24 22 20 20 20 17 17 19 19 18 18 18 18 16 16 16 15 18 18 17 18 18 17 17 17 18 18 18 18 17 17 17 17 17 18 18 18 18 18 18 18 19
22 20 21 22 23 25 26 26 23 22 19 18 17 19 18 18 17 17 16 18 20 18 16 17 15 17 17 17 17 17 17 17 18 18 18 17 17 17 17 17 18 18 18 18 18 18 18 18 18
24 20 21 22 24 25 26 26 26 21 20 18 17 19 17 17 16 15 15 15 14 17 17 16 14 16 16 16 16 17 17 17 17 17 17 17 17 17 17 17 18 18 18 18 18 18 18 18 18
22 19 22 25 26 26 26 25 25 23 21 20 19 20 17 17 16 15 15 14 14 14 14 15 16 16 15 15 16 16 16 16 16 16 17 17 17 17 18 18 18 17 17 18 17 17 17 17 17
23 22 25 26 27 27 27 26 22 23 22 20 20 21 19 17 16 16 15 15 14 14 14 14 15 15 15 15 15 15 16 16 16 16 16 17 17 17 17 17 17 17 17 17 17 17 16 16 16
24 25 26 26 27 28 27 26 20 19 20 22 18 17 18 17 16 15 15 14 14 14 14 14 14 15 15 15 15 15 16 16 16 16 17 17 17 17 17 17 17 17 17 17 16 16 16 16 16
25 26 27 26 24 25 26 22 22 20 20 22 19 17 16 16 15 14 14 14 13 13 13 13 13 14 14 15 14 15 15 16 17 17 17 17 17 16 17 17 17 17 17 16 16 16 16 16 16
25 25 25 25 24 25 25 23 23 21 21 22 19 17 16 15 14 14 13 13 13 12 12 12 12 12 13 14 15 15 16 17 16 17 16 17 17 17 17 17 17 17 16 16 16 16 16 16 15
25 24 24 25 25 24 25 23 21 21 20 22 20 17 16 15 14 13 13 13 13 12 12 12 12 12 12 13 14 15 16 16 16 16 16 17 17 17 17 17 16 17 16 16 16 16 16 15 15
24 23 22 23 24 24 23 21 22 20 20 20 20 17 16 15 14 12 12 12 12 11 11 11 11 11 12 13 14 13 14 15 15 16 15 17 17 17 17 17 17 17 16 16 16 16 16 16 16
22 21 22 23 25 23 21 21 21 20 22 20 18 15 15 14 13 12 12 12 12 11 12 11 11 12 12 13 13 14 15 14 14 15 16 17 16 16 17 16 16 16 16 16 16 16 16 16 16
21 23 23 23 23 23 23 22 19 19 20 18 15 14 15 14 14 12 12 12 12 12 13 12 12 13 13 13 13 14 14 14 15 16 17 19 17 16 16 16 16 16 16 16 16 16 16 16 16
24 24 23 22 25 24 24 22 20 20 20 17 15 14 14 14 14 13 12 12 11 11 11 11 11 12 13 12 13 15 15 15 17 18 17 17 17 16 16 16 15 16 16 16 16 16 15 15 15
26 24 23 25 27 26 24 24 24 23 20 18 17 16 15 14 14 13 13 12 12 11 11 11 12 12 13 14 14 14 16 16 16 16 16 16 16 16 16 16 16 16 16 16 16 15 15 15 14
25 24 24 24 25 25 25 23 25 25 22 20 19 18 17 15 14 14 14 13 12 12 12 12 12 12 12 13 13 13 14 15 16 16 16 16 16 16 17 16 16 16 16 16 15 15 15 14 14
24 25 26 25 24 21 24 20 23 24 23 21 20 19 18 17 16 16 16 14 13 12 13 13 13 13 14 14 14 14 15 15 15 16 16 16 16 16 17 16 16 16 15 16 15 15 14 14 13
24 25 26 25 23 22 23 22 22 24 23 23 21 20 19 18 17 17 17 16 14 14 13 14 14 14 14 15 15 15 16 16 17 16 16 16 16 16 16 16 15 16 15 15 15 14 14 14 13
27 25 24 24 22 20 23 23 21 22 25 24 23 21 20 19 18 18 18 17 17 15 15 15 15 15 15 15 16 16 17 17 17 16 16 15 15 15 15 15 15 15 15 15 14 14 14 13 13
25 23 19 18 18 18 21 22 23 25 25 25 24 23 22 21 19 18 18 18 18 17 17 16 17 17 16 17 17 17 18 18 17 16 16 15 14 15 15 14 15 15 15 15 14 13 13 13 12
23 23 18 19 16 18 19 20 23 25 26 25 25 25 23 22 21 19 19 19 19 18 18 17 18 18 18 18 18 18 18 18 18 17 16 15 15 15 15 14 14 14 14 14 13 13 12 12 11
24 22 23 20 19 19 19 21 25 26 26 26 26 26 23 23 22 21 20 20 20 19 18 18 18 18 18 18 18 18 18 18 18 17 16 15 15 15 15 14 14 14 14 13 12 10 9 10 9
24 25 22 20 18 18 22 21 22 24 25 26 26 23 24 23 23 22 22 21 21 20 20 19 18 19 19 19 18 17 18 18 18 17 16 15 15 14 14 13 13 13 11 10 9 9 8 8 8
23 23 24 23 20 18 18 19 22 23 25 26 26 24 24 24 24 22 23 22 22 21 20 20 19 19 19 19 19 17 17 18 18 18 15 14 14 13 13 12 12 12 10 11 9 8 8 8 7
25 23 23 18 21 19 18 18 24 24 23 24 24 24 24 24 22 23 24 22 22 21 21 20 19 19 19 19 19 18 17 17 18 16 15 14 13 13 13 12 12 11 11 9 8 9 8 8 7
Height
778 779 780 781 809 809 809 789 763 760 748 741 732 740 748 756 754 775 763 764 762 774 781 788 784 781 786 788 790 795 798 802 805 804 807 811 815 817 822 826 829 833 834 838 840 843 846 846 848
777 778 782 786 811 823 801 765 761 765 771 748 741 746 746 762 760 763 766 758 757 752 759 770 788 790 795 793 793 799 803 807 811 809 813 814 816 819 824 828 832 836 837 842 843 845 848 849 852
777 778 788 798 807 811 801 768 761 762 759 761 764 762 762 774 767 765 761 753 753 748 745 772 787 790 796 795 794 797 803 807 811 814 817 817 819 823 827 831 834 838 840 844 845 848 850 852 854
778 778 782 800 802 781 776 762 763 758 759 761 765 770 771 768 761 772 772 757 752 746 743 763 786 786 793 793 794 797 799 805 810 811 818 819 823 825 830 833 837 841 843 847 848 850 851 853 856
779 783 802 803 791 768 763 755 759 765 764 766 763 770 762 756 750 763 772 764 753 750 748 734 767 778 788 791 796 799 802 806 809 812 816 820 824 828 830 835 839 843 845 848 850 852 854 855 858
788 784 808 805 784 763 758 754 754 755 764 758 763 772 760 750 757 768 760 757 759 766 766 746 760 774 781 789 793 798 802 808 811 814 818 822 824 829 833 837 840 844 847 849 852 855 856 858 860
785 796 805 794 780 768 756 748 752 758 761 763 769 777 766 763 766 766 755 755 759 750 747 764 768 769 777 786 792 796 803 809 811 814 820 825 828 831 835 839 843 846 848 851 854 857 859 861 862
776 787 796 785 782 772 751 746 743 747 765 763 761 774 777 777 768 762 763 761 758 756 765 760 744 767 777 785 792 798 803 808 812 816 823 828 830 833 837 841 845 847 850 853 854 857 861 863 864
763 794 798 784 772 766 748 752 741 749 755 765 767 765 768 779 769 766 767 766 765 759 752 767 757 754 773 785 795 801 804 810 815 819 824 829 832 835 839 843 846 850 852 855 856 860 862 865 867
776 794 783 760 753 755 748 749 747 752 761 767 766 759 755 765 769 767 765 765 763 755 751 771 777 774 779 787 795 802 804 813 819 822 827 829 832 837 840 844 848 851 854 856 861 861 864 866 867
767 780 758 753 746 743 747 748 754 754 763 764 764 756 756 759 764 765 767 769 766 764 767 771 777 783 784 795 797 801 803 814 821 823 831 832 837 840 842 843 849 853 856 859 861 862 865 865 869
770 754 751 747 742 741 746 744 762 760 766 755 757 759 761 760 762 762 766 768 766 769 775 778 784 790 796 797 799 800 804 809 821 826 831 836 838 845 843 846 851 854 857 860 862 863 865 867 870
760 753 743 744 747 745 745 760 756 762 757 755 754 760 764 764 764 765 767 771 772 771 774 780 785 790 795 793 799 805 809 809 822 830 834 838 839 845 843 849 852 856 859 861 862 863 866 869 870
753 749 747 744 746 742 750 751 752 755 755 754 758 766 767 768 768 768 770 773 773 772 775 781 786 788 790 795 802 808 816 821 824 830 834 834 843 843 846 849 853 856 860 862 861 864 866 869 871
752 761 752 745 743 747 746 761 763 755 752 753 762 767 770 771 771 772 771 772 771 775 778 780 784 790 795 799 807 813 817 823 826 829 834 840 843 842 845 849 851 854 859 860 862 865 866 869 871
763 762 773 751 745 743 749 767 753 757 754 759 762 769 772 775 774 773 774 775 777 780 781 784 789 793 798 803 807 812 821 822 825 827 836 840 839 844 846 848 851 855 857 859 861 864 866 869 870
767 783 771 760 742 747 754 763 748 745 744 759 766 771 775 778 778 777 776 776 777 780 784 789 791 795 800 803 812 815 817 821 827 833 836 835 838 842 846 848 851 853 856 857 860 863 865 867 869
776 768 759 758 746 748 750 754 750 744 744 760 769 772 772 774 780 782 782 782 782 784 786 789 793 797 801 807 815 818 823 824 827 830 829 831 837 840 844 846 848 852 853 856 858 861 864 865 867
754 755 761 750 736 745 744 750 750 741 747 761 769 770 774 773 779 783 786 785 784 789 788 789 793 798 803 808 815 818 818 820 822 824 829 833 836 840 843 843 846 849 851 853 857 860 862 864 865
744 751 753 738 729 736 739 739 730 735 740 749 758 764 770 774 778 783 783 784 785 786 790 792 795 798 803 807 811 814 816 818 823 826 830 832 836 838 839 840 842 845 848 852 855 856 859 862 863
741 747 749 749 733 729 733 747 735 726 737 746 747 751 759 764 770 775 778 781 782 784 784 787 789 794 799 801 810 812 816 817 820 822 825 827 830 832 834 836 838 840 842 846 850 853 857 858 860
749 732 734 738 745 768 736 775 740 732 735 740 744 747 751 757 764 768 770 774 775 777 781 785 789 791 793 799 803 807 807 810 813 816 819 822 824 826 830 831 833 834 837 841 844 848 853 855 856
738 727 731 734 749 753 749 761 746 723 736 733 735 739 741 744 749 756 762 766 769 775 778 782 785 788 790 794 796 800 802 805 808 813 815 818 820 823 826 828 829 832 834 837 840 843 847 850 853
716 729 734 735 750 776 750 752 755 739 721 719 719 726 730 735 740 745 751 760 766 771 774 777 781 783 785 787 790 793 796 799 803 807 809 813 815 819 822 824 826 830 831 834 835 839 841 846 849
721 740 777 785 784 786 753 754 738 712 707 704 709 714 720 724 732 739 745 749 755 761 765 768 771 773 776 779 781 785 788 792 795 799 803 806 810 813 815 818 822 825 827 828 831 834 835 839 844
728 737 777 784 799 784 760 762 735 702 696 697 699 702 709 718 724 729 733 737 743 749 755 761 765 768 771 773 776 780 784 786 789 791 795 799 802 805 808 813 817 821 823 824 827 827 832 833 839
723 738 728 758 764 776 766 740 717 703 705 698 697 697 706 710 715 719 724 729 734 738 742 746 753 760 764 766 770 772 775 781 783 785 789 794 796 800 803 808 814 817 819 822 821 826 835 834 837
709 712 744 750 778 788 749 750 740 723 714 703 700 702 700 704 709 714 717 720 724 728 731 737 744 748 751 759 762 767 770 772 777 778 782 786 790 794 798 804 808 813 815 819 827 827 831 835 838
715 723 722 730 749 771 777 758 718 716 708 702 699 698 697 697 697 703 707 712 717 720 724 729 736 741 749 754 754 757 760 764 769 771 776 781 785 790 795 798 802 805 811 815 820 824 827 829 831
690 708 717 753 746 745 757 757 707 707 704 699 699 694 693 692 694 694 694 702 709 713 717 722 729 735 741 747 747 750 751 758 761 765 771 776 781 786 789 793 798 801 805 810 815 817 821 823 827
Wind_Speed
8 8 7 3 3 3 7 12 14 14 5 7 6 8 6 4 3 3 9 12 19 14 6 22 32 34 34 34 34 33 32 32 31 32 30 29 29 32 34 30 30 30 29 27 30 31 30 30 29
7 6 4 3 2 3 9 12 7 17 13 16 14 16 11 0 3 4 9 15 24 29 6 5 27 28 29 32 33 31 31 29 28 29 28 29 31 33 34 31 30 29 28 26 29 30 28 27 24
9 5 2 3 4 9 7 10 14 13 20 11 8 4 6 9 3 2 13 16 15 28 28 29 27 31 31 33 34 34 31 30 28 27 27 29 32 35 33 31 31 30 27 26 29 29 26 24 21
3 4 4 1 13 19 7 2 7 8 5 10 3 5 0 10 7 9 14 13 18 25 41 35 35 36 36 36 34 35 34 32 30 29 29 31 32 35 33 32 30 29 26 25 28 27 25 22 19
3 2 2 5 15 22 3 4 6 3 1 4 4 7 3 6 12 17 7 16 18 25 33 32 46 43 41 38 36 35 34 32 32 31 31 31 32 33 33 31 29 27 28 27 27 25 22 20 16
2 3 4 11 18 8 3 2 3 4 3 3 5 5 3 4 4 8 5 16 21 13 9 34 41 45 44 40 37 36 34 32 32 32 31 32 32 32 32 31 28 27 27 26 25 22 21 19 16
6 2 7 10 12 1 3 3 2 5 3 4 5 5 9 5 5 4 19 23 16 17 27 38 43 43 42 41 37 37 34 33 32 32 31 30 30 30 32 31 28 27 27 25 24 20 18 17 15
3 3 9 7 7 4 4 5 8 7 3 6 5 1 4 5 9 13 20 21 16 14 13 23 21 43 43 40 39 37 35 33 31 32 31 30 29 29 31 29 27 27 25 23 22 20 17 16 15
2 3 7 11 9 5 3 2 8 16 8 3 6 2 6 1 20 16 10 9 13 19 20 9 24 39 43 41 37 35 34 32 32 32 31 30 29 30 30 29 28 25 24 22 20 18 16 14 14
3 3 10 12 3 4 7 8 4 7 9 1 9 6 17 10 12 13 9 10 9 18 27 22 19 29 35 37 37 35 34 32 33 32 31 32 29 29 29 28 25 23 21 20 18 17 15 13 10
9 7 13 10 6 4 4 7 8 7 9 4 8 6 9 14 12 10 10 13 16 25 24 26 28 31 34 35 37 36 36 35 32 31 30 28 27 27 29 27 24 22 21 21 18 17 11 7 9
5 12 7 7 8 3 3 3 5 12 6 6 14 11 9 8 8 10 11 11 15 25 33 34 40 40 38 39 37 36 39 37 28 30 22 23 25 24 26 25 23 22 21 20 15 14 12 10 6
8 7 6 5 8 7 8 2 4 3 5 8 15 12 10 8 7 16 15 14 18 24 31 34 39 40 38 39 37 35 36 39 31 25 20 23 22 24 23 22 21 20 20 17 15 12 10 8 8
8 11 9 5 7 4 3 3 2 0 4 8 15 8 7 6 5 13 19 17 18 24 29 33 35 36 39 38 35 35 34 29 22 24 21 18 22 22 21 21 21 18 18 16 11 13 9 9 6
11 9 9 8 5 3 2 0 2 3 6 6 11 11 9 6 8 9 16 20 29 21 26 32 31 32 31 30 28 28 31 17 22 23 19 19 20 23 19 20 19 20 21 14 13 12 10 10 6
9 7 5 5 6 6 7 8 4 9 9 3 8 12 10 7 7 11 14 22 27 31 28 30 31 31 29 29 33 35 27 24 23 23 20 20 14 18 22 21 22 19 20 17 18 15 14 10 9
5 8 6 8 8 5 4 4 7 9 12 8 10 11 10 9 11 11 17 22 25 31 31 32 34 34 31 28 26 27 27 25 22 20 20 16 16 15 21 22 20 20 19 22 19 15 14 13 12
7 6 5 5 4 6 12 5 7 10 10 11 9 8 11 12 10 12 13 17 25 30 33 39 38 38 38 33 28 29 25 20 20 23 18 18 15 15 21 20 22 22 21 18 16 16 15 14 11
14 16 7 9 7 10 10 7 12 13 11 13 9 12 11 12 16 17 15 15 16 18 24 29 32 37 35 31 32 33 30 24 29 25 20 23 22 21 24 22 23 22 19 19 19 18 13 12 11
17 9 6 7 8 12 7 8 10 10 19 21 18 14 14 13 14 19 22 22 22 25 23 25 34 37 38 36 33 29 29 22 24 27 28 27 27 26 25 22 26 22 20 21 20 20 16 11 11
7 5 6 9 8 6 1 6 4 7 18 14 17 17 17 18 17 16 22 26 26 26 30 29 32 37 38 36 32 24 24 27 30 33 33 30 27 27 25 23 26 24 24 26 25 21 18 13 15
3 9 11 6 3 4 2 5 4 5 14 19 16 16 18 19 17 17 21 26 29 31 31 32 34 41 39 37 30 27 25 22 27 33 32 28 29 29 27 27 26 25 25 28 27 23 20 14 16
7 8 3 3 6 4 4 0 7 7 9 16 20 20 20 21 21 21 21 29 32 36 34 34 33 33 36 36 35 30 31 32 29 30 29 27 29 27 27 29 26 27 30 27 26 25 23 17 17
6 4 5 2 2 5 8 3 7 5 15 17 20 22 22 21 21 21 30 30 31 37 37 35 34 35 37 38 38 36 33 32 31 29 31 30 30 27 27 29 26 28 29 26 26 26 26 21 17
5 4 2 4 2 5 9 6 10 8 8 8 24 21 23 23 22 21 21 26 32 35 36 37 36 31 39 40 39 41 36 38 35 34 34 34 33 30 31 31 31 28 29 28 29 31 29 23 16
8 10 5 6 3 3 13 5 6 5 6 9 10 20 22 21 22 24 24 32 36 38 38 37 37 37 35 40 40 41 36 37 39 37 37 38 38 35 34 35 32 28 31 29 31 31 24 20 13
4 5 9 6 1 2 5 7 1 4 5 5 6 7 17 21 21 24 23 33 36 40 43 46 41 37 35 37 41 42 43 38 35 36 38 38 37 33 27 31 32 29 31 28 30 22 13 9 12
10 3 2 1 7 6 4 5 3 3 4 4 5 8 8 10 18 19 20 31 36 40 43 42 43 42 44 39 37 38 41 41 39 33 37 39 33 28 23 26 31 28 29 26 15 10 10 11 11
4 8 3 9 4 6 3 5 5 7 4 2 2 8 8 8 6 12 23 31 37 38 38 40 41 39 36 35 37 38 40 42 39 34 34 32 30 27 25 29 31 32 30 26 26 20 18 13 11
16 12 10 5 5 4 5 5 5 8 10 8 9 8 8 8 9 8 5 18 31 36 35 36 37 38 36 36 37 40 42 42 38 30 30 32 30 28 28 28 32 32 31 30 27 22 18 15 18
Wind_Direction
271 275 296 319 45 72 268 266 250 278 25 333 333 22 71 27 71 206 187 181 137 128 31 192 178 169 164 157 150 145 143 142 139 133 128 127 126 125 121 120 118 115 111 108 107 105 105 104 102
282 288 242 294 134 289 278 260 273 52 25 9 8 349 11 221 70 135 157 182 200 177 176 203 180 167 161 154 146 144 143 141 138 130 131 129 128 126 123 124 121 119 112 111 111 108 107 109 107
284 267 81 162 207 246 256 3 353 60 48 48 356 37 19 342 339 175 178 150 181 180 169 248 193 168 163 156 149 149 148 144 139 134 132 130 130 128 127 127 124 118 118 116 115 112 111 110 102
304 344 333 215 262 263 206 24 60 1 61 61 342 62 345 316 353 3 162 180 178 184 201 241 210 167 168 161 155 154 151 148 144 137 136 135 135 132 132 127 125 125 123 120 118 115 113 108 96
272 308 274 256 263 264 273 77 124 102 103 314 13 308 219 291 15 317 313 204 174 196 212 206 173 167 166 163 159 155 152 147 143 140 140 139 138 138 133 130 132 134 128 125 122 118 109 101 91
297 125 289 278 281 300 244 233 168 100 181 314 36 353 267 338 323 317 18 101 102 50 163 185 171 166 162 162 158 153 150 146 141 141 141 141 139 139 138 137 140 137 130 127 124 120 113 102 91
211 105 256 271 298 170 320 266 163 117 91 26 17 31 343 24 168 123 111 111 104 69 30 359 172 166 158 159 153 149 146 143 143 141 142 141 140 141 143 147 142 137 132 129 128 124 116 105 94
209 129 287 296 287 265 241 310 170 145 111 116 167 67 256 344 124 113 116 102 114 115 242 304 329 163 153 149 148 145 144 145 145 142 141 141 139 140 145 146 142 139 135 133 131 125 119 109 101
268 310 277 275 308 313 250 351 331 91 115 68 200 202 72 316 113 113 110 111 113 124 128 70 319 113 135 141 142 143 144 145 143 140 141 140 138 140 143 143 143 141 139 137 132 132 118 107 100
173 204 251 260 265 17 13 34 305 77 112 270 241 211 132 192 90 119 121 118 123 105 118 149 109 117 129 136 143 144 140 138 138 136 138 138 138 139 139 139 141 143 138 134 136 120 119 117 106
251 227 264 287 307 65 31 351 22 45 49 279 306 332 132 114 109 104 110 127 139 132 134 148 147 148 146 147 144 140 137 138 135 135 135 137 142 143 143 138 145 144 142 138 135 127 130 111 134
288 260 264 300 309 45 344 72 67 103 204 27 69 53 74 96 107 99 93 115 119 123 131 134 143 151 150 144 141 137 137 133 131 135 131 143 141 145 137 140 147 147 146 142 141 134 135 132 137
314 294 309 356 54 22 8 60 157 157 201 86 85 78 80 86 93 109 110 113 125 120 130 137 140 144 145 138 132 131 133 132 133 146 154 156 151 154 141 147 147 149 148 154 152 150 158 144 127
280 304 297 6 329 33 307 66 90 170 346 89 100 101 103 116 113 117 122 115 116 122 129 147 140 138 141 137 139 140 142 148 146 153 161 149 164 149 149 155 155 153 169 172 168 161 147 153 151
323 317 310 273 312 314 55 264 212 266 180 106 128 131 124 135 136 134 134 128 131 125 136 148 148 143 142 142 145 154 151 158 150 146 151 179 167 158 159 164 168 176 179 179 160 157 162 162 156
299 302 282 278 286 266 132 259 188 170 142 186 124 116 121 121 114 127 126 128 129 131 125 136 148 153 145 153 157 151 169 152 149 142 182 184 159 175 174 179 182 184 178 182 171 166 162 177 185
262 255 254 328 257 223 131 246 239 221 129 137 126 123 137 128 121 133 134 140 140 140 143 143 146 152 140 132 148 160 159 149 155 193 197 185 175 188 200 191 182 181 181 179 179 182 183 188 190
245 229 168 234 278 182 255 236 222 251 117 125 130 133 129 126 134 138 141 143 152 159 159 150 151 152 154 158 164 154 156 168 192 197 188 182 206 206 213 189 188 184 182 181 182 185 192 195 190
260 277 234 244 233 209 227 188 206 230 137 139 158 148 154 149 151 151 154 160 159 163 156 154 161 165 169 165 163 171 180 188 186 191 201 223 232 223 212 194 192 186 191 187 190 191 182 168 189
259 272 303 307 196 212 251 273 193 182 160 164 164 158 155 150 161 168 170 169 173 164 162 165 170 175 182 183 186 179 189 202 212 213 216 218 220 215 200 200 192 196 188 192 195 191 190 198 202
254 273 288 267 289 336 45 319 154 177 161 173 164 159 160 162 167 179 182 175 177 179 183 178 179 179 183 183 187 201 211 213 213 215 216 217 218 214 199 199 199 198 193 197 199 198 199 190 195
257 256 260 304 12 259 121 276 275 179 159 168 171 170 170 168 171 181 178 175 180 191 190 184 182 179 180 188 204 211 206 199 206 212 215 214 213 216 207 200 207 203 198 199 198 197 203 197 191
226 268 304 348 317 343 288 20 272 256 182 181 179 186 180 176 173 179 182 183 182 188 192 192 195 197 201 204 206 214 209 205 207 212 209 210 213 216 210 200 207 200 204 204 201 197 205 206 177
208 290 307 301 254 303 274 172 277 218 188 198 185 187 184 181 181 182 184 186 191 190 195 200 203 203 204 206 210 216 212 204 202 205 205 206 210 213 208 204 201 207 204 205 204 201 202 198 195
169 163 323 346 10 234 350 322 233 225 224 209 182 182 186 184 180 182 185 188 193 194 197 199 206 205 203 207 209 215 214 209 202 205 202 201 203 211 212 210 208 210 209 203 205 199 194 190 199
215 188 160 200 179 338 14 280 291 227 212 141 167 187 185 181 185 186 190 191 195 196 198 202 208 215 211 212 214 215 213 210 210 210 209 208 212 217 220 214 214 219 209 204 196 191 192 186 199
232 187 198 133 117 108 232 280 12 63 332 121 155 173 178 187 186 191 191 193 194 194 197 200 205 212 212 211 214 216 217 215 212 211 210 212 217 220 221 216 209 217 203 199 183 176 185 187 188
187 183 119 311 161 208 239 253 205 49 280 291 89 109 121 148 188 197 195 197 198 200 201 199 201 205 209 214 220 212 215 217 214 210 207 213 212 214 208 207 211 199 184 165 162 165 178 181 221
179 211 157 240 204 180 205 271 222 186 180 78 261 157 160 168 179 172 202 205 200 204 203 202 204 208 210 212 214 206 211 213 212 211 206 205 205 200 198 204 200 190 174 193 196 181 188 219 217
195 196 191 152 248 189 144 262 170 172 250 190 242 170 181 177 185 188 196 176 198 204 202 201 203 204 209 207 211 208 210 212 214 204 200 203 200 201 203 197 194 182 193 192 187 193 215 207 214